VU3IZK-13 Weather Reports


time (UTC)temp
C
wind
direction
speed
KPH
gust
KPH
rain 1hr
cm
rain 24hr
cm
rain mn
cm
humidity
%
barometer
mb
20260505040015 27 56 8.0 16.1 0.08 14.30 14.27 71
20260505034537 27 309 12.9 16.1 0.08 14.30 14.27 72
20260505033017 27 49 4.8 17.7 0.43 14.25 14.22 74
20260505031516 26 176 17.7 17.7 0.33 14.12 14.10 77
20260505030036 25 19 4.8 12.9 0.30 14.10 14.07 77
20260505024536 25 228 9.7 9.7 0.00 13.79 13.77 81
20260505023014 24 202 1.6 11.3 0.10 13.79 13.77 83
20260505021514 23 217 6.4 8.0 0.10 13.79 13.77 85
20260505020039 23 105 0.0 6.4 0.10 13.79 13.77 86
20260505014538 23 226 1.6 4.8 0.10 13.79 13.77 87
20260505013017 22 27 1.6 6.4 0.05 13.72 13.69 89
20260505011518 22 59 3.2 4.8 0.05 13.72 13.67 89
20260505010040 22 296 3.2 6.4 0.05 13.72 13.67 89
20260505004541 22 221 4.8 4.8 0.05 13.72 13.67 89
20260505003019 22 20 1.6 6.4 0.05 13.94 13.92 89
20260505001519 22 256 0.0 8.0 0.05 13.94 13.61 88
20260505000043 22 195 1.6 6.4 0.05 13.94 13.61 88
20260504234543 22 357 1.6 6.4 0.05 13.94 13.61 88
20260504233021 22 315 0.0 6.4 0.66 13.97 13.64 87
20260504231519 22 289 4.8 11.3 0.64 13.94 13.54 86
20260504230040 22 216 0.0 11.3 0.58 13.92 13.49 86
20260504224521 22 211 6.4 12.9 0.38 13.72 13.28 85
20260504223021 22 269 6.4 8.0 0.08 13.34 12.90 85
20260504221521 22 347 1.6 9.7 0.08 13.34 12.90 85
20260504220043 22 271 3.2 11.3 0.08 13.34 12.90 84
20260504214523 22 160 1.6 6.4 0.03 13.28 12.85 86
20260504213024 22 275 0.0 8.0 8.61 13.26 12.83 86
20260504211502 22 29 3.2 8.0 6.71 11.35 10.92 85
20260504210003 22 296 3.2 8.0 2.87 7.52 7.09 86
20260504204525 22 242 0.0 4.8 0.36 5.00 4.57 85
20260504203026 22 6 1.6 6.4 3.86 4.75 4.32 86
20260504201505 22 24 6.4 8.0 2.16 2.95 2.51 87
20260504200005 22 317 1.6 6.4 1.17 1.96 1.55 87
20260504194529 22 62 0.0 4.8 0.53 1.32 0.91 86
20260504193029 22 157 0.0 4.8 0.38 0.81 0.38 84
20260504191508 22 352 0.0 8.0 0.05 0.48 0.05 82
20260504190005 22 211 1.6 8.0 0.03 0.46 0.03 80
20260504184526 23 243 1.6 9.7 0.03 0.46 0.03 79
20260504183007 23 205 3.2 8.0 0.00 0.43 0.00 77
20260504181552 23 152 3.2 11.3 0.00 0.41 0.41 78
20260504174530 23 161 6.4 8.0 0.00 0.41 0.41 77
20260504173008 23 186 0.0 4.8 0.00 0.41 0.41 80
20260504171531 23 180 3.2 9.7 0.00 0.41 0.41 78
20260504081503 33 113 25.7 32.2 0.00 0.41 0.41 39
20260504050008 28 276 9.7 24.1 0.00 0.41 0.41 61
20260504044527 28 231 12.9 27.4 0.00 0.41 0.41 59
20260504043004 28 217 11.3 24.1 0.00 0.41 0.41 58
20260504041545 28 246 14.5 24.1 0.00 0.41 0.41 58